Location: Newark
(47.5833°N, 8.1500°E)
Time: 20:55:50
(UTC+00:00)

Tiros 1 - All Passes

Search period start: 28 October 2020 00:00
Search period end: 07 November 2020 00:00
Orbit: 630 x 663 km, 48.4° (Epoch: 27 October)

Date Brightness Start Highest point End Pass type
(mag) Time Alt. Az. Time Alt. Az. Time Alt. Az.
28 Oct - 02:27:48 10° SSW 02:31:37 26° SE 02:35:25 10° E visible
28 Oct - 04:08:44 10° WSW 04:13:21 74° SSE 04:17:59 10° ENE visible
28 Oct - 05:50:58 10° W 05:55:36 80° N 06:00:15 10° E daylight
28 Oct - 07:33:13 10° WNW 07:37:48 64° SSW 07:42:24 10° ESE daylight
28 Oct - 09:15:59 10° W 09:19:26 21° SW 09:22:53 10° S daylight
29 Oct - 01:14:10 10° SSE 01:16:00 12° SE 01:17:50 10° ESE night (unlit)
29 Oct - 02:52:56 10° SW 02:57:20 45° SSE 03:01:45 10° E visible
29 Oct - 04:34:44 10° W 04:39:23 86° N 04:44:02 10° E visible
29 Oct - 06:17:03 10° W 06:21:41 90° N 06:26:20 10° ESE daylight
29 Oct - 07:59:21 10° W 08:03:40 39° SSW 08:07:59 10° SE daylight
30 Oct - 01:37:49 10° SSW 01:41:32 24° SE 01:45:14 10° E visible
30 Oct - 03:18:37 10° WSW 03:23:14 71° SSE 03:27:51 10° ENE visible
30 Oct - 05:00:50 10° W 05:05:28 80° N 05:10:07 10° E visible
30 Oct - 06:43:06 10° WNW 06:47:41 67° SSW 06:52:17 10° ESE daylight
30 Oct - 08:25:47 10° W 08:29:21 22° SW 08:32:55 10° SSE daylight
31 Oct - 00:24:33 10° SSE 00:25:56 11° SE 00:27:19 10° ESE night (unlit)
31 Oct - 02:02:52 10° SW 02:07:15 42° SSE 02:11:37 10° E visible
31 Oct - 03:44:36 10° W 03:49:15 87° NNW 03:53:54 10° E visible
31 Oct - 05:26:55 10° W 05:31:33 88° N 05:36:12 10° E visible
31 Oct - 07:09:12 10° W 07:13:34 42° SSW 07:17:55 10° SE daylight
31 Oct - 08:53:41 10° WSW 08:54:52 11° SW 08:56:02 10° SSW daylight
01 Nov - 00:47:49 10° SSW 00:51:27 23° SE 00:55:03 10° E night (unlit)
01 Nov - 02:28:30 10° WSW 02:33:07 68° SSE 02:37:43 10° ENE visible
01 Nov - 04:10:42 10° W 04:15:20 80° N 04:19:59 10° E visible
01 Nov - 05:52:58 10° WNW 05:57:35 70° SSW 06:02:11 10° ESE daylight
01 Nov - 07:35:36 10° W 07:39:16 24° SW 07:42:57 10° SSE daylight
01 Nov - 23:35:14 10° SE 23:35:52 10° SE 23:36:30 10° SE night (unlit)
02 Nov - 01:12:47 10° SW 01:17:08 40° SSE 01:21:28 10° E visible
02 Nov - 02:54:28 10° WSW 02:59:07 89° NNW 03:03:46 10° E visible
02 Nov - 04:36:46 10° W 04:41:26 86° N 04:46:04 10° E visible
02 Nov - 06:19:04 10° W 06:23:28 44° SSW 06:27:51 10° SE daylight
02 Nov - 08:03:06 10° WSW 08:04:48 12° SW 08:06:28 10° SSW daylight
02 Nov - 23:57:51 10° S 00:01:22 21° SE 00:04:51 10° E night (unlit)
03 Nov - 01:38:23 10° WSW 01:43:00 65° SSE 01:47:35 10° ENE visible
03 Nov - 03:20:33 10° W 03:25:12 80° N 03:29:51 10° E visible
03 Nov - 05:02:50 10° WNW 05:07:27 73° SSW 05:12:04 10° ESE visible
03 Nov - 06:45:24 10° W 06:49:11 25° SW 06:52:57 10° SSE daylight
04 Nov - 00:22:43 10° SW 00:27:02 38° SSE 00:31:20 10° E night (unlit)
04 Nov - 02:04:20 10° WSW 02:08:59 89° S 02:13:38 10° E visible
04 Nov - 03:46:39 10° W 03:51:18 85° N 03:55:56 10° E visible
04 Nov - 05:28:55 10° W 05:33:21 47° SSW 05:37:46 10° SE visible
04 Nov - 07:12:39 10° WSW 07:14:44 13° SW 07:16:47 10° SSW daylight
04 Nov - 23:07:54 10° S 23:11:16 20° SE 23:14:38 10° E night (unlit)
05 Nov - 00:48:16 10° WSW 00:52:53 62° SSE 00:57:28 10° ENE night (unlit)
05 Nov - 02:30:24 10° W 02:35:04 80° N 02:39:43 10° E visible
05 Nov - 04:12:42 10° WNW 04:17:20 76° SSW 04:21:57 10° ESE visible
05 Nov - 05:55:13 10° W 05:59:05 27° SW 06:02:57 10° SSE daylight
05 Nov - 23:32:40 10° SW 23:36:56 36° SSE 23:41:11 10° E night (unlit)
06 Nov - 01:14:11 10° WSW 01:18:52 87° SSE 01:23:31 10° E night (unlit)
06 Nov - 02:56:30 10° W 03:01:10 84° N 03:05:48 10° E visible
06 Nov - 04:38:46 10° W 04:43:15 49° SSW 04:47:42 10° SE visible
06 Nov - 06:22:17 10° WSW 06:24:39 14° SW 06:27:01 10° SSW daylight
06 Nov - 22:17:57 10° S 22:21:11 19° SE 22:24:25 10° E night (unlit)
